Flag for U.S.A. Weather past 2 weeks in Little Rock, Arkansas, U.S.A.

Now
73 °F

Overcast.


Feels Like: 71 °F
Forecast: 70 / 85 °F
Wind: 5 mph from East

Location: Adams Field

Current Time: Sep 18, 2014 at 2:43:51 AM

Latest Report: Sep 18, 2014 at 1:53 AM


Visibility: 7 mi

Pressure: 29.90 "Hg

Humidity: 88%

Dew point: 69 °F

Location of Little RockLocation

Historic Weather in Little Rock — Graph

°F

Little Rock temperature yesterday

Maximum temperature yesterday: 85 °F (at 3:53 PM)
Minimum temperature yesterday: 63 °F (at 6:53 AM)
Average temperature yesterday: 74 °F

Past Weeks' High & Low Weather Summary

 TemperatureHumidityPressure
High94 °F (Sep 4, 3:53 PM)94% (Sep 3, 5:53 AM)30.32 "Hg (Sep 3, 5:53 AM)
Low56 °F (Sep 13, 5:53 AM)45% (Sep 8, 1:53 PM)29.80 "Hg (Sep 10, 6:53 PM)
Average75 °F71%30.06 "Hg
* Reported Sep 3 1:53 AM — Sep 18 1:53 AM, Little Rock, Weather by CustomWeather, © 2014

Note: Actual official high and low records may vary slightly from our data, if they occured in-between our weather recording intervals... More about our weather records

Advertising

Little Rock weather history for previous 24 hours

 ConditionsComfort  
Time TempWeatherWind HumidityBarometerVisibility
1:53 AM
Sep 18
73 °FOvercast.5 mph88%29.90 "Hg7 mi
12:53 AM73 °FMostly cloudy.3 mph88%29.92 "Hg7 mi
11:53 PM
Sep 17
74 °FMostly cloudy.5 mph85%29.91 "Hg7 mi
10:53 PM74 °FMostly cloudy.No wind85%29.91 "Hg7 mi
9:53 PM76 °FPassing clouds.No wind77%29.92 "Hg10 mi
8:53 PM76 °FPartly cloudy.5 mph77%29.89 "Hg10 mi
7:53 PM78 °FBroken clouds.8 mph71%29.87 "Hg10 mi
6:53 PM81 °FPartly sunny.5 mph62%29.92 "Hg10 mi
5:53 PM84 °FPartly sunny.5 mph55%29.93 "Hg10 mi
4:53 PM85 °FBroken clouds.7 mph55%29.93 "Hg10 mi
3:53 PM85 °FPartly sunny.6 mph57%29.94 "Hg10 mi
2:53 PM84 °FBroken clouds.5 mph55%29.96 "Hg10 mi
1:53 PM81 °FOvercast.3 mph62%29.97 "Hg10 mi
12:53 PM79 °FOvercast.5 mph65%30.00 "Hg10 mi
11:53 AM78 °FPartly sunny.5 mph64%30.01 "Hg10 mi
10:53 AM75 °FBroken clouds.3 mph69%30.02 "Hg10 mi
9:53 AM72 °FBroken clouds.6 mph71%30.01 "Hg10 mi
8:53 AM68 °FBroken clouds.3 mph78%30.01 "Hg10 mi
7:53 AM65 °FPartly sunny.3 mph81%30.01 "Hg10 mi
6:53 AM63 °FPartly cloudy.5 mph87%30.02 "Hg10 mi
5:53 AM64 °FOvercast.5 mph84%30.01 "Hg10 mi
4:53 AM64 °FClear.3 mph81%30.02 "Hg10 mi
3:53 AM64 °FClear.3 mph84%30.02 "Hg10 mi
2:53 AM64 °FClear.3 mph84%30.03 "Hg10 mi
Weather by CustomWeather, © 2014

See weather overviewHow to use our weather pages